Home   Weather   Iqaluit   Past weeks
Flag for Canada

Past Weather in Iqaluit, Nunavut, Canada — Yesterday and Last 2 Weeks

Now
43 °F

Partly cloudy.


Feels Like: 43 °F
Forecast: 56 / 43 °F
Wind: 2 mph from North

Location: Iqaluit

Current Time: Jul 17, 2019 at 12:58:33 am

Latest Report: Jul 17, 2019 at 12:00 am


Visibility: 30 mi

Pressure: 29.62 "Hg

Humidity: 87%

Dew Point: 39 °F

Location of IqaluitLocation

Past Weather in Iqaluit — Graph

°F

Iqaluit Temperature Yesterday

Maximum temperature yesterday: 57 °F (at 10:00 am)
Minimum temperature yesterday: 41 °F (at 12:05 am)
Average temperature yesterday: 47 °F

High & Low Weather Summary for the Past Weeks

 TemperatureHumidityPressure
High73 °F (Jul 9, 4:00 pm)100% (Jul 5, 6:00 am)30.19 "Hg (Jul 5, 6:00 am)
Low36 °F (Jul 2, 4:00 am)38% (Jul 9, 5:00 pm)29.57 "Hg (Jul 12, 12:36 am)
Average46 °F84%29.86 "Hg
* Reported Jul 2 12:00 am — Jul 17 12:00 am, Iqaluit. Weather by CustomWeather, © 2019

Note: Actual official high and low records may vary slightly from our data, if they occured in-between our weather recording intervals... More about our weather records

Advertising

Iqaluit Weather History for the Previous 24 Hours

Scroll right to see more
 ConditionsComfort  
Time TempWeatherWind HumidityBarometerVisibility
12:00 am
Wed, Jul 17
43 °FPartly cloudy.2 mph87%29.62 "Hg30 mi
11:00 pm
Tue, Jul 16
52 °FPassing clouds.5 mph72%29.62 "Hg30 mi
10:00 pm54 °FScattered clouds.2 mph72%29.62 "Hg30 mi
9:00 pm52 °FPartly sunny.2 mph72%29.63 "Hg30 mi
8:00 pm52 °FBroken clouds.3 mph72%29.63 "Hg30 mi
7:00 pm52 °FScattered clouds.5 mph72%29.63 "Hg30 mi
6:00 pm50 °FScattered clouds.2 mph76%29.63 "Hg30 mi
5:00 pm52 °FBroken clouds.7 mph72%29.63 "Hg30 mi
4:00 pm54 °FBroken clouds.6 mph72%29.63 "Hg30 mi
3:00 pm52 °FBroken clouds.6 mph82%29.64 "Hg30 mi
2:38 pm52 °FBroken clouds.6 mph82%29.64 "Hg30 mi
2:00 pm50 °FScattered clouds.7 mph82%29.65 "Hg30 mi
1:00 pm52 °FBroken clouds.5 mph82%29.65 "Hg30 mi
12:00 pm57 °FBroken clouds.6 mph67%29.67 "Hg30 mi
11:00 am57 °FBroken clouds.12 mph63%29.67 "Hg30 mi
10:00 am57 °FPartly sunny.13 mph67%29.68 "Hg30 mi
9:00 am54 °FPartly sunny.14 mph77%29.69 "Hg30 mi
8:00 am52 °FPartly sunny.9 mph88%29.69 "Hg30 mi
7:00 am41 °FFog.3 mph93%29.70 "Hg30 mi
6:00 am41 °FFog.5 mph100%29.70 "Hg30 mi
5:00 am45 °FFog.5 mph100%29.69 "Hg30 mi
4:00 am43 °FFog.5 mph100%29.70 "Hg30 mi
3:33 am43 °FFog.No wind93%29.70 "Hg20 mi
3:00 am41 °FFog.No wind100%29.70 "Hg4 mi
2:51 am41 °FFog.No wind100%29.70 "Hg1 mi
2:29 am41 °FFog.No wind100%29.70 "Hg1 mi
2:19 am41 °FFog.No wind100%29.70 "Hg1 mi
2:08 am43 °FFog.2 mph93%29.70 "Hg1 mi
1:48 am41 °FFog.No wind100%29.70 "Hg1 mi
1:36 am41 °FFog.No wind100%29.70 "Hg4 mi
1:00 am41 °FFog.2 mph100%29.71 "Hg2 mi
12:28 am41 °FFog.2 mph100%29.71 "Hg2 mi
12:22 am41 °FFog.3 mph100%29.72 "Hg2 mi
12:05 am41 °FFog.2 mph100%29.72 "Hg2 mi
Weather by CustomWeather, © 2019

See weather overview